Location: Sternwarte ZA, Rosenfeld-Brittheim
(48.2889°N, 8.6789°E)
Time: 04:32:34
(UTC+01:00)

ISS - Pass Details

Date: 13 January 2018
Orbit: 402 x 407 km, 51.6° (Epoch: 24 January)

Event Time Altitude Azimuth Distance (km) Brightness Sun altitude
Exits shadow 07:06:10 13° 260° (W) 1,282 -1.8 -10.7°
Maximum altitude 07:07:58 20° 221° (SW) 1,020 -2.0 -10.5°
Drops below altitude 10° 07:10:25 10° 172° (S) 1,462 -0.6 -10.1°
Sets 07:12:51 0° 154° (SSE) 2,318 0.8 -9.7°
